Location: Eckley
(40.9930°N, 75.8630°W)
Time: 17:37:19
(UTC-04:00)

Daily predictions for brighter satellites

Satellite Brightness Start Highest point End
(mag) Time Altitude Azimuth Time Altitude Azimuth Time Altitude Azimuth
Envisat 3.6 20:16:18 10° SE 20:21:01 40° ENE 20:25:43 10° N
Lacrosse 5 rocket 1.8 20:18:42 10° NW 20:22:16 50° SW 20:25:59 10° SSE
Cosmos 1939 Rocket 4.1 20:19:09 10° ESE 20:22:20 24° ENE 20:25:30 10° NNE
Cosmos 1536 4.0 20:19:25 10° SE 20:22:41 24° E 20:25:58 10° NE
Cosmos 1655 Rocket 4.0 20:27:37 10° S 20:33:54 84° E 20:40:17 10° N
Cosmos 44 3.9 20:29:47 10° NW 20:34:07 53° WSW 20:38:36 10° SSE
Meteor 2-4 Rocket 4.1 20:31:03 10° N 20:36:25 46° ENE 20:41:52 10° SSE
Okean 2 Rocket 4.0 20:33:03 10° SSW 20:37:27 56° W 20:41:55 10° N
CZ-2D R/B 3.4 20:33:39 10° S 20:37:31 81° WSW 20:41:23 10° NNW
ATLAS 2AS CENTAUR R/B 3.2 20:31:35 10° S 20:38:47 49° ESE 20:46:28 10° NE
BREEZE-M DEB (TANK) 2.4 20:41:47 10° SW 20:44:29 74° SE 20:51:30 10° ENE
Meteor 1-13 Rocket 4.3 20:39:06 10° N 20:45:05 78° E 20:51:01 10° SSE
BREEZE-M DEB (TANK) 3.6 20:43:55 10° WNW 20:47:11 67° SSW 20:59:04 12° SE
Delta 2 Rocket 4.4 20:45:50 10° SW 20:49:16 28° SSE 20:51:53 16° ESE
NOSS 2-3 (E) 3.8 20:44:48 10° SSW 20:49:25 72° ESE 20:54:46 10° NE
Helios 1B rocket 3.3 20:51:02 10° NE 20:54:35 28° E 20:57:35 13° SSE
Resurs 1-3 4.0 20:51:34 10° S 20:55:55 66° WSW 21:00:18 10° NNW
USA 186 2.3 20:52:47 10° S 20:56:06 62° W 20:59:27 10° NNW
Lacrosse 5 1.8 20:52:51 10° SSW 20:57:50 62° SE 21:02:51 10° NE
Cosmos 1850 Rocket 4.0 20:54:40 10° NNW 21:00:02 85° ENE 21:05:14 10° SSE
Atlas Centaur 2 3.8 20:56:42 10° WSW 21:04:01 34° SSW 21:08:53 17° SE
SeaSat 1 2.4 21:03:10 10° NNE 21:08:07 79° ESE 21:13:03 10° SSW
ARGOS 4.3 21:08:23 19° ESE 21:10:50 27° ENE 21:15:15 10° N
Cosmos 1607 4.0 21:07:12 10° NNW 21:13:42 78° ENE 21:18:19 20° SE
Okean 1 Rocket 2.9 21:12:58 10° S 21:17:16 72° E 21:21:39 10° NNE
Cosmos 220 Rocket 4.0 21:13:50 10° NNW 21:18:09 68° ENE 21:20:29 26° SSE
Cosmos 1300 Rocket 3.7 21:13:56 10° SSW 21:18:13 73° W 21:22:32 10° N
Cosmos 2263 Rocket 2.2 21:13:51 10° NNW 21:19:34 83° WSW 21:23:58 17° SSE
Cosmos 1025 Rocket 3.2 21:17:15 10° N 21:21:26 51° E 21:23:14 30° SE
Cosmos 2278 Rocket 4.4 21:20:32 10° NNE 21:22:18 11° NE 21:24:02 10° ENE
NOSS 2-3 (C) 4.4 21:18:31 10° SW 21:23:09 61° NW 21:28:37 10° NNE
Cosmos 2322 Rocket 3.1 21:17:38 10° SW 21:23:11 53° WNW 21:28:47 10° NNE
Okean 2 3.7 21:19:34 10° N 21:23:31 45° E 21:24:45 34° SE
YAOGAN 6 2.4 21:22:14 25° S 21:24:13 87° W 21:27:45 10° NNW
Meteor 1-11 Rocket 4.5 21:18:44 10° SSW 21:24:28 57° WNW 21:30:07 10° N
SJ-11-01 4.5 21:20:59 12° S 21:25:17 72° WSW 21:29:58 10° NNW
GPS 2-05 Rocket1 4.2 21:23:37 10° WSW 21:26:21 23° SSW 21:26:33 22° S
Cosmos 1844 Rocket 3.9 21:21:37 10° N 21:26:24 27° NE 21:28:30 22° E
Tiangong 1 1.0 21:24:00 10° W 21:26:43 51° SSW 21:26:47 51° SSW
Cosmos 1818 4.4 21:29:42 28° ESE 21:29:42 28° ESE 21:33:53 10° NE
Cosmos 2237 4.5 21:24:09 10° S 21:29:30 44° ESE 21:34:52 10° NE
Okean 1-7 Rocket 3.6 21:26:34 10° N 21:31:03 64° E 21:32:58 33° SSE
Cosmos 2266 Rocket 4.1 21:25:18 10° SSW 21:31:20 76° W 21:37:24 10° N
Resurs 01 Rocket 3.8 21:28:27 10° SSW 21:32:05 25° W 21:35:45 10° NW
Spot 1 4.4 21:29:50 23° SSE 21:33:05 81° ENE 21:38:09 10° NNW
SL-16 R/B 3.5 21:30:06 10° SW 21:35:27 43° WNW 21:40:51 10° NNE
Abrixas rocket 4.1 21:33:18 10° NW 21:36:04 24° N 21:37:17 20° NE
USA 238 DEB 4.0 21:29:20 10° NNW 21:36:20 57° NE 21:39:57 30° ESE
USA 238 4.0 21:29:26 10° NNW 21:36:26 57° NE 21:40:03 29° ESE
Cosmos 1515 3.8 21:33:41 10° N 21:37:26 54° E 21:37:54 50° ESE
Terra 3.8 21:38:01 13° ENE 21:38:15 13° ENE 21:40:28 10° NNE
Cosmos 2315 Rocket 3.9 21:32:57 10° N 21:39:14 80° E 21:43:24 23° SSE
Cosmos 1975 3.8 21:40:38 31° ENE 21:40:38 31° ENE 21:43:30 10° NNE
MetOp-B 4.3 21:38:09 34° SE 21:40:18 56° ENE 21:45:32 10° N
Cosmos 2219 Rocket 3.7 21:42:47 20° ENE 21:42:47 20° ENE 21:45:18 10° NE
Meteor 1-23 Rocket 4.5 21:37:04 10° NNW 21:42:36 67° W 21:47:03 16° S
Nadezhda 2 Rocket 4.4 21:37:29 10° S 21:43:37 80° E 21:49:52 10° N
Helios 1A 3.4 21:41:23 25° S 21:43:46 62° WSW 21:48:00 10° NNW
Cosmos 2322 3.6 21:40:58 10° SSW 21:46:36 80° ESE 21:52:18 10° NNE
ERS-1 Rocket 2.9 21:46:40 37° SSE 21:48:39 79° ENE 21:53:42 10° N
ATLAS 3B R/B 2.5 21:44:27 10° NNW 21:51:14 78° NE 21:53:55 38° SE
USA 245 4.0 21:51:09 46° ESE 21:51:56 51° ENE 21:56:04 10° N
Cosmos 1500 3.1 21:52:07 69° E 21:52:08 69° E 21:56:01 10° NNE
Meteor 1-29 3.2 21:49:53 10° N 21:53:17 67° WNW 21:54:00 50° SW
Cosmos 2360 Rocket 2.4 21:50:09 10° SSW 21:55:46 71° WNW 22:01:25 10° NNE
COSMOS 2428 2.8 21:55:48 39° SSE 21:57:33 53° ESE 22:03:06 10° NNE
Cosmos 1745 Rocket 4.2 22:01:10 42° ESE 22:01:57 44° E 22:07:44 10° NNE
Cosmos 1844 4.3 21:59:37 10° N 22:04:59 40° ENE 22:05:53 38° E
H-2A R/B 2.0 22:08:24 55° E 22:08:48 57° ENE 22:13:41 10° N
Cosmos 1892 Rocket 3.4 22:05:58 10° N 22:10:25 79° E 22:10:25 79° E
Cosmos 2333 Rocket 3.5 22:13:04 24° ENE 22:13:04 24° ENE 22:15:49 10° NE
SAR-Lupe-4 4.4 22:12:33 45° WSW 22:12:36 46° W 22:16:05 10° NNW
Cosmos 1238 Rocket 3.9 22:06:49 10° N 22:13:35 87° E 22:15:42 46° S
Cosmos 2333 4.0 22:16:47 55° S 22:17:58 73° ESE 22:23:36 10° NNE
Cosmos 1302 Rocket 4.0 22:19:33 34° SSW 22:21:55 78° WNW 22:27:14 10° NNE
Cosmos 1544 Rocket 3.6 22:24:22 76° N 22:24:22 76° N 22:28:30 10° N
Cosmos 1486 Rocket 3.9 22:20:30 10° NNW 22:25:46 83° WSW 22:26:11 75° S
Cosmos 2237 Rocket 4.0 22:30:37 18° NE 22:30:37 18° NE 22:32:20 10° NE
Cosmos 405 4.4 22:28:30 39° NW 22:28:30 39° NW 22:31:12 10° N
Aureole 3 Rocket 4.3 22:19:48 10° N 22:28:09 79° W 22:30:15 47° S
ATLAS 2AS CENTAUR R/B 4.1 22:22:31 10° WSW 22:29:56 45° NW 22:37:41 10° NNE
SPOT 5 2.9 22:33:36 68° WSW 22:33:42 68° WSW 22:38:22 10° NNW
BREEZE M DEB (TANK) 3.3 22:28:48 10° WSW 22:33:38 44° W 22:33:38 44° W
Cosmos 1455 Rocket 3.5 22:37:04 61° NNW 22:37:04 61° NNW 22:40:54 10° N
NOSS 3-4 (A) 3.7 22:41:26 52° ENE 22:41:26 52° ENE 22:46:32 10° NE
NOSS 3-4 (C) 3.8 22:41:38 50° ENE 22:41:38 50° ENE 22:46:38 10° NE
CENTAUR R/B 4.2 22:33:24 10° NNW 22:40:17 33° NE 22:43:21 26° ENE
Cosmos 1066 Rocket 4.4 22:35:09 10° NNW 22:40:31 62° W 22:41:15 56° SW
Lacrosse 5 3.8 22:36:43 10° W 22:41:08 29° NNW 22:45:33 10° NNE
SL-8 R/B 4.4 22:44:40 10° WNW 22:48:14 48° W 22:48:14 48° W
ARGOS 4.1 22:49:54 36° WSW 22:50:51 40° W 22:55:53 10° NNW
Atlas Centaur 2 4.4 22:47:32 10° WSW 22:51:30 18° SW 22:51:30 18° SW
Nadezhda 1 Rocket 3.9 22:46:17 10° N 22:52:38 84° W 22:53:09 76° SSW
Meteor 1-21 4.3 22:56:06 10° N 23:01:12 74° NNW 23:01:12 74° NNW
DMSP B5D2-2 4.4 22:58:07 10° N 23:02:48 66° NNW 23:02:48 66° NNW
Cosmos 1354 Rocket 4.4 22:58:10 10° NNW 23:02:44 62° NW 23:02:44 62° NW
Cosmos 2278 Rocket 2.6 23:01:52 10° NNW 23:06:39 56° NNE 23:06:39 56° NNE
Cosmos 1709 Rocket 4.2 23:10:41 61° NE 23:10:41 61° NE 23:15:56 10° N
SPOT 1/Viking Rocket 4.5 23:10:41 41° W 23:10:41 41° W 23:15:23 10° NNW
Cosmos 1844 Rocket 3.4 23:05:05 10° NW 23:10:09 46° W 23:10:09 46° W
Cosmos 2181 Rocket 4.4 23:05:03 10° N 23:10:38 55° NE 23:10:38 55° NE
Terra 2.9 23:16:55 42° NNW 23:16:55 42° NNW 23:20:09 10° NNW
H-2A R/B 4.0 23:23:50 27° N 23:23:50 27° N 23:25:55 10° N
Cosmos 2219 Rocket 2.9 23:24:25 50° WNW 23:24:32 50° WNW 23:30:03 10° NNE
NOSS 3-2 (A) 4.1 23:17:44 10° NW 23:25:14 62° WSW 23:25:38 61° SW
SL-16 R/B 4.1 23:39:45 20° NE 23:39:45 20° NE 23:41:34 10° NE
ATLAS 3B R/B 4.4 23:36:45 10° WNW 23:41:03 18° WSW 23:41:11 18° WSW
H-2A R/B 4.3 23:49:01 16° W 23:49:01 16° W 23:51:39 10° NW
ATLAS CENTAUR R/B 4.5 23:53:10 10° NNW 23:53:18 11° N 23:53:18 11° N
